Flag for U.S.A. Weather past 2 weeks in Paradise, California, U.S.A.

Now
99 °F

Broken clouds.


Feels Like: 98 °F
Forecast: 71 / 90 °F
Wind: 12 mph from South

Location: Chico Municipal

Current Time: Jul 4, 2015 at 5:41:17 PM

Latest Report: Jul 4, 2015 at 4:50 PM


Visibility: 40 mi

Pressure: 29.71 "Hg (28.03 "Hg at 527m altitude)

Humidity: 27%

Dew point: 59 °F

Location of ParadiseLocation

Historic Weather in Paradise — Graph

°F

Paradise temperature yesterday

Maximum temperature yesterday: 95 °F (at 4:53 PM)
Minimum temperature yesterday: 75 °F (at 5:35 AM)
Average temperature yesterday: 84 °F

Past Weeks' High & Low Weather Summary

 TemperatureHumidityPressure
High108 °F (Jun 30, 4:50 PM)64% (Jun 25, 5:55 AM)30.02 "Hg (Jun 25, 5:55 AM)
Low59 °F (Jun 22, 5:55 AM)9% (Jun 22, 4:55 PM)29.72 "Hg (Jul 4, 3:48 PM)
Average82 °F33%29.86 "Hg
* Reported Jun 19 3:50 PM — Jul 4 3:48 PM, Paradise, Weather by CustomWeather, © 2015

Note: Actual official high and low records may vary slightly from our data, if they occured in-between our weather recording intervals... More about our weather records

Advertising

Paradise weather history for previous 24 hours

 ConditionsComfort  
Time TempWeatherWind HumidityBarometerVisibility
3:48 PM
Sat, Jul 4
99 °FBroken clouds.14 mph29%29.72 "Hg40 mi
2:48 PM99 °FBroken clouds.9 mph25%29.73 "Hg40 mi
1:55 PM95 °FScattered clouds.6 mph32%29.76 "Hg40 mi
12:48 PM93 °FBroken clouds.6 mph34%29.79 "Hg40 mi
9:54 AM84 °FPartly sunny.6 mph43%29.82 "Hg40 mi
7:54 AM79 °FPartly sunny.6 mph51%29.83 "Hg40 mi
6:50 AM77 °FPartly sunny.7 mph54%29.82 "Hg40 mi
6:15 AM75 °FClear.3 mph57%29.81 "Hg10 mi
5:55 AM75 °FClear.3 mph57%29.81 "Hg10 mi
5:35 AM77 °FClear.5 mph54%29.81 "Hg10 mi
5:15 AM77 °FClear.5 mph54%29.80 "Hg10 mi
4:55 AM77 °FClear.3 mph54%29.80 "Hg10 mi
4:35 AM77 °FClear.No wind57%29.80 "Hg10 mi
4:15 AM77 °FClear.5 mph57%29.80 "Hg10 mi
3:55 AM75 °FClear.3 mph57%29.80 "Hg10 mi
3:35 AM77 °FClear.6 mph57%29.80 "Hg10 mi
3:15 AM81 °FClear.No wind51%29.79 "Hg10 mi
2:55 AM81 °FClear.No wind51%29.79 "Hg10 mi
2:15 AM81 °FClear.No wind48%29.79 "Hg10 mi
1:55 AM82 °FClear.No wind42%29.79 "Hg10 mi
1:35 AM82 °FClear.No wind42%29.79 "Hg10 mi
1:15 AM84 °FClear.3 mph40%29.80 "Hg10 mi
12:55 AM82 °FClear.No wind42%29.79 "Hg10 mi
12:35 AM84 °FClear.No wind40%29.79 "Hg10 mi
12:15 AM84 °FClear.No wind37%29.80 "Hg10 mi
11:55 PM
Fri, Jul 3
84 °FClear.No wind37%29.80 "Hg10 mi
11:15 PM86 °FClear.No wind38%29.80 "Hg10 mi
10:55 PM86 °FClear.No wind38%29.80 "Hg10 mi
10:35 PM86 °FClear.No wind35%29.79 "Hg10 mi
10:15 PM88 °FClear.No wind33%29.79 "Hg10 mi
9:55 PM88 °FClear.No wind33%29.78 "Hg10 mi
9:35 PM90 °FSunny.No wind33%29.78 "Hg10 mi
9:15 PM91 °FSunny.No wind30%29.78 "Hg10 mi
8:35 PM91 °FSunny.No wind30%29.77 "Hg10 mi
8:15 PM93 °FSunny.No wind32%29.77 "Hg10 mi
7:55 PM91 °FSunny.No wind38%29.78 "Hg10 mi
7:35 PM93 °FSunny.No wind34%29.78 "Hg10 mi
7:15 PM93 °FSunny.5 mph34%29.77 "Hg10 mi
6:55 PM93 °FSunny.7 mph36%29.77 "Hg10 mi
5:58 PM95 °FScattered clouds.6 mph26%29.79 "Hg40 mi
Weather by CustomWeather, © 2015

See weather overviewHow to use our weather pages